This is the latest recevied weather packets stored in our database for station/object KE8WAY. If no packets are shown the sender has not sent any weather packets the latest 10 day(s).
| Time | Temp. | Humidity | Pressure | Rain* | Wind** | Luminosity | Snow |
|---|---|---|---|---|---|---|---|
| 1777946324 | 20° C | 53% | 1001.2 hPa | 0 mm | - | 0 W/m² | - |
| 1777946021 | 20° C | 53% | 1001.4 hPa | 0 mm | - | 0 W/m² | - |
| 1777945719 | 20.56° C | 53% | 1001.2 hPa | 0 mm | - | 0 W/m² | - |
| 1777945416 | 20.56° C | 52% | 1001.3 hPa | 0 mm | - | 0 W/m² | - |
| 1777945112 | 20.56° C | 51% | 1001.4 hPa | 0 mm | - | 0 W/m² | - |
| 1777944809 | 20.56° C | 52% | 1001.2 hPa | 0 mm | - | 0 W/m² | - |
| 1777944508 | 21.11° C | 50% | 1001.1 hPa | 0 mm | - | 0 W/m² | - |
| 1777944205 | 20.56° C | 51% | 1001.3 hPa | 0 mm | - | 0 W/m² | - |
| 1777943900 | 21.11° C | 49% | 1001.2 hPa | 0 mm | - | 0 W/m² | - |
| 1777943598 | 21.11° C | 49% | 1000.8 hPa | 0 mm | - | 0 W/m² | - |
| 1777943294 | 21.11° C | 49% | 1000.8 hPa | 0 mm | - | 0 W/m² | - |
| 1777942990 | 21.11° C | 49% | 1000.7 hPa | 0 mm | - | 0 W/m² | - |
| 1777942686 | 21.67° C | 48% | 1001 hPa | 0 mm | - | 0 W/m² | - |
| 1777942383 | 21.67° C | 46% | 1000.7 hPa | 0 mm | - | 0 W/m² | - |
| 1777942081 | 21.67° C | 46% | 1000.8 hPa | 0 mm | - | 0 W/m² | - |
| 1777941776 | 21.67° C | 45% | 1000.9 hPa | 0 mm | - | 0 W/m² | - |
| 1777941474 | 21.67° C | 45% | 1000.5 hPa | 0 mm | - | 0 W/m² | - |
| 1777941172 | 22.22° C | 44% | 1000.3 hPa | 0 mm | - | 2 W/m² | - |
| 1777940868 | 22.22° C | 45% | 1000.1 hPa | 0 mm | - | 4 W/m² | - |
| 1777940565 | 22.22° C | 45% | 1000.5 hPa | 0 mm | - | 7 W/m² | - |
| 1777940263 | 22.78° C | 45% | 1000.5 hPa | 0 mm | - | 12 W/m² | - |
| 1777939960 | 22.78° C | 43% | 1000 hPa | 0 mm | - | 17 W/m² | - |
| 1777939657 | 22.78° C | 43% | 1000 hPa | 0 mm | - | 25 W/m² | - |
| 1777939355 | 22.78° C | 44% | 1000 hPa | 0 mm | - | 30 W/m² | - |
| 1777939051 | 22.78° C | 44% | 999.8 hPa | 0 mm | - | 31 W/m² | - |
* Rain latest hour (hover to see other rain measurements)
** Current wind speed in m/s (hover to see current wind gust speed)